Location: *
(43.2048°N, 0.1612°E)
Time: 17:46:00
(UTC+00:00)

Cosmos 2297 Rocket - Pass Details

Date: 30 September 2023
Orbit: 838 x 844 km, 71.0° (Epoch: 05 December)

Event Time Altitude Azimuth Distance (km) Brightness Sun altitude
Rises 04:52:18 0° 198° (SSW) 3,375 5.1 -12.2°
Reaches altitude 10° 04:54:43 10° 197° (SSW) 2,444 4.4 -11.8°
Maximum altitude 05:00:19 76° 112° (ESE) 865 2.4 -10.8°
Drops below altitude 10° 05:05:57 10° 28° (NNE) 2,461 5.1 -9.8°
Sets 05:08:24 0° 27° (NNE) 3,400 5.8 -9.3°
